| time (UTC) | temp C | wind direction | speed KPH | gust KPH | rain 1hr cm | rain 24hr cm | rain mn cm | humidity % | barometer mb |
| 20260502224514 | 16 | 232 | 22.5 | 29.0 | 0.00 | 0.00 | 0.00 | 30 | 1014.8 |
| 20260502224014 | 16 | 252 | 11.3 | 29.0 | 0.00 | 0.00 | 0.00 | 31 | 1014.7 |
| 20260502223514 | 16 | 205 | 9.7 | 24.1 | 0.00 | 0.00 | 0.00 | 30 | 1014.8 |
| 20260502223014 | 17 | 221 | 14.5 | 20.9 | 0.00 | 0.00 | 0.00 | 30 | 1015.0 |
| 20260502222044 | 17 | 238 | 17.7 | 25.7 | 0.00 | 0.00 | 0.00 | 29 | 1015.0 |
| 20260502221514 | 17 | 232 | 17.7 | 22.5 | 0.00 | 0.00 | 0.00 | 30 | 1015.1 |
| 20260502221014 | 17 | 251 | 14.5 | 24.1 | 0.00 | 0.00 | 0.00 | 29 | 1015.2 |
| 20260502220514 | 17 | 240 | 14.5 | 24.1 | 0.00 | 0.00 | 0.00 | 30 | 1015.3 |
| 20260502220014 | 17 | 221 | 16.1 | 24.1 | 0.00 | 0.00 | 0.00 | 29 | 1015.3 |
| 20260502215514 | 17 | 270 | 19.3 | 24.1 | 0.00 | 0.00 | 0.00 | 31 | 1015.4 |
| 20260502214514 | 17 | 289 | 11.3 | 29.0 | 0.00 | 0.00 | 0.00 | 31 | 1015.6 |
| 20260502214014 | 16 | 228 | 22.5 | 27.4 | 0.00 | 0.00 | 0.00 | 30 | 1015.6 |
| 20260502212514 | 17 | 217 | 14.5 | 25.7 | 0.00 | 0.00 | 0.00 | 32 | 1015.8 |
| 20260502212014 | 17 | 230 | 20.9 | 25.7 | 0.00 | 0.00 | 0.00 | 30 | 1015.9 |
| 20260502211514 | 17 | 238 | 12.9 | 22.5 | 0.00 | 0.00 | 0.00 | 31 | 1015.9 |
| 20260502211014 | 17 | 221 | 11.3 | 29.0 | 0.00 | 0.00 | 0.00 | 32 | 1015.9 |
| 20260502210514 | 17 | 225 | 17.7 | 29.0 | 0.00 | 0.00 | 0.00 | 29 | 1016.0 |
| 20260502205514 | 17 | 212 | 17.7 | 29.0 | 0.00 | 0.00 | 0.00 | 30 | 1016.2 |
| 20260502205014 | 17 | 210 | 19.3 | 19.3 | 0.00 | 0.00 | 0.00 | 31 | 1016.2 |
| 20260502203514 | 17 | 244 | 22.5 | 25.7 | 0.00 | 0.00 | 0.00 | 32 | 1016.4 |
| 20260502203014 | 17 | 282 | 14.5 | 25.7 | 0.00 | 0.00 | 0.00 | 31 | 1016.6 |
| 20260502202014 | 16 | 242 | 17.7 | 24.1 | 0.00 | 0.00 | 0.00 | 29 | 1016.6 |
| 20260502201014 | 16 | 254 | 14.5 | 17.7 | 0.00 | 0.00 | 0.00 | 30 | 1016.7 |
| 20260502200514 | 16 | 241 | 11.3 | 20.9 | 0.00 | 0.00 | 0.00 | 31 | 1016.9 |
| 20260502200014 | 16 | 238 | 11.3 | 29.0 | 0.00 | 0.00 | 0.00 | 30 | 1016.9 |
| 20260502195513 | 16 | 275 | 9.7 | 29.0 | 0.00 | 0.00 | 0.00 | 29 | 1017.0 |
| 20260502195013 | 16 | 221 | 22.5 | 22.5 | 0.00 | 0.00 | 0.00 | 28 | 1017.0 |
| 20260502194014 | 16 | 235 | 8.0 | 22.5 | 0.00 | 0.00 | 0.00 | 29 | 1017.3 |
| 20260502193514 | 16 | 239 | 12.9 | 24.1 | 0.00 | 0.00 | 0.00 | 29 | 1017.4 |
| 20260502193013 | 16 | 259 | 20.9 | 25.7 | 0.00 | 0.00 | 0.00 | 29 | 1017.4 |
| 20260502192513 | 16 | 207 | 20.9 | 25.7 | 0.00 | 0.00 | 0.00 | 32 | 1017.4 |
| 20260502192013 | 16 | 285 | 9.7 | 22.5 | 0.00 | 0.00 | 0.00 | 29 | 1017.5 |
| 20260502191513 | 16 | 265 | 11.3 | 22.5 | 0.00 | 0.00 | 0.00 | 31 | 1017.6 |
| 20260502191013 | 16 | 273 | 14.5 | 22.5 | 0.00 | 0.00 | 0.00 | 30 | 1017.6 |
| 20260502190513 | 16 | 255 | 11.3 | 19.3 | 0.00 | 0.00 | 0.00 | 30 | 1017.7 |
| 20260502190014 | 16 | 248 | 6.4 | 24.1 | 0.00 | 0.00 | 0.00 | 29 | 1017.7 |
| 20260502185513 | 16 | 246 | 8.0 | 24.1 | 0.00 | 0.00 | 0.00 | 30 | 1017.8 |
| 20260502185013 | 16 | 261 | 9.7 | 14.5 | 0.00 | 0.00 | 0.00 | 31 | 1017.8 |
| 20260502184013 | 15 | 227 | 14.5 | 25.7 | 0.00 | 0.00 | 0.00 | 32 | 1018.1 |
| 20260502182513 | 15 | 281 | 9.7 | 20.9 | 0.00 | 0.00 | 0.00 | 32 | 1018.2 |
| 20260502182014 | 15 | 214 | 9.7 | 20.9 | 0.00 | 0.00 | 0.00 | 31 | 1018.2 |
| 20260502181513 | 16 | 211 | 11.3 | 19.3 | 0.00 | 0.00 | 0.00 | 32 | 1018.3 |
| 20260502181013 | 15 | 202 | 6.4 | 14.5 | 0.00 | 0.00 | 0.00 | 35 | 1018.3 |
| 20260502180513 | 15 | 253 | 11.3 | 16.1 | 0.00 | 0.00 | 0.00 | 31 | 1018.4 |
| 20260502170513 | 14 | 300 | 3.2 | 19.3 | 0.00 | 0.00 | 0.00 | 34 | 1019.0 |
| 20260502164014 | 14 | 280 | 9.7 | 20.9 | 0.00 | 0.00 | 0.00 | 33 | 1019.2 |
| 20260502163013 | 14 | 360 | 3.2 | 11.3 | 0.00 | 0.00 | 0.00 | 33 | 1019.3 |
| 20260502162013 | 13 | 327 | 8.0 | 14.5 | 0.00 | 0.00 | 0.00 | 37 | 1019.3 |
| 20260502161513 | 13 | 270 | 4.8 | 14.5 | 0.00 | 0.00 | 0.00 | 35 | 1019.4 |
| 20260502161013 | 13 | 254 | 14.5 | 17.7 | 0.00 | 0.00 | 0.00 | 34 | 1019.5 |
| 20260502160513 | 13 | 273 | 4.8 | 17.7 | 0.00 | 0.00 | 0.00 | 35 | 1019.5 |
| 20260502152013 | 12 | 304 | 11.3 | 16.1 | 0.00 | 0.00 | 0.00 | 43 | 1019.8 |
| 20260502151513 | 12 | 237 | 9.7 | 19.3 | 0.00 | 0.00 | 0.00 | 45 | 1019.8 |
| 20260502151013 | 11 | 233 | 9.7 | 19.3 | 0.00 | 0.00 | 0.00 | 45 | 1019.8 |
| 20260502130513 | 3 | 269 | 0.0 | 0.0 | 0.00 | 0.00 | 0.00 | 84 | 1019.9 |
| 20260502123513 | 1 | 269 | 0.0 | 1.6 | 0.00 | 0.00 | 0.00 | 86 | 1019.7 |
| 20260502123013 | 0 | 269 | 0.0 | 0.0 | 0.00 | 0.00 | 0.00 | 85 | 1019.7 |
| 20260502122513 | 0 | 269 | 0.0 | 0.0 | 0.00 | 0.00 | 0.00 | 85 | 1019.7 |
| 20260502121513 | 0 | 269 | 0.0 | 0.0 | 0.00 | 0.00 | 0.00 | 85 | 1019.6 |
| 20260502120513 | 0 | 269 | 0.0 | 0.0 | 0.00 | 0.00 | 0.00 | 85 | 1019.4 |
| 20260502115013 | 0 | 269 | 0.0 | 0.0 | 0.00 | 0.00 | 0.00 | 84 | 1019.5 |
| 20260502114513 | 0 | 269 | 0.0 | 0.0 | 0.00 | 0.00 | 0.00 | 84 | 1019.4 |
| 20260502114013 | 0 | 269 | 0.0 | 0.0 | 0.00 | 0.00 | 0.00 | 84 | 1019.3 |
| 20260502113513 | 0 | 269 | 0.0 | 1.6 | 0.00 | 0.00 | 0.00 | 84 | 1019.3 |
| 20260502112513 | 0 | 268 | 0.0 | 3.2 | 0.00 | 0.00 | 0.00 | 84 | 1019.2 |
| 20260502112013 | 0 | 269 | 1.6 | 4.8 | 0.00 | 0.00 | 0.00 | 84 | 1019.2 |
| 20260502111513 | 0 | 269 | 3.2 | 4.8 | 0.00 | 0.00 | 0.00 | 84 | 1019.2 |
| 20260502111013 | 0 | 269 | 3.2 | 4.8 | 0.00 | 0.00 | 0.00 | 83 | 1019.2 |
| 20260502110513 | 0 | 269 | 1.6 | 4.8 | 0.00 | 0.00 | 0.00 | 83 | 1019.2 |
| 20260502105513 | 0 | 281 | 1.6 | 6.4 | 0.00 | 0.00 | 0.00 | 83 | 1019.1 |
| 20260502104513 | 0 | 282 | 3.2 | 6.4 | 0.00 | 0.00 | 0.00 | 83 | 1019.1 |
| 20260502104013 | 0 | 281 | 6.4 | 6.4 | 0.00 | 0.00 | 0.00 | 82 | 1019.0 |
| 20260502103513 | 0 | 33 | 0.0 | 0.0 | 0.00 | 0.00 | 0.00 | 83 | 1019.0 |
| 20260502103013 | 0 | 33 | 0.0 | 0.0 | 0.00 | 0.00 | 0.00 | 82 | 1019.0 |
| 20260502102512 | 0 | 33 | 0.0 | 3.2 | 0.00 | 0.00 | 0.00 | 82 | 1019.0 |
| 20260502102013 | 0 | 33 | 0.0 | 3.2 | 0.00 | 0.00 | 0.00 | 82 | 1019.0 |
| 20260502101512 | 0 | 33 | 3.2 | 3.2 | 0.00 | 0.00 | 0.00 | 82 | 1018.9 |
| 20260502101013 | 0 | 33 | 0.0 | 4.8 | 0.00 | 0.00 | 0.00 | 82 | 1019.0 |
| 20260502100513 | 0 | 33 | 3.2 | 4.8 | 0.00 | 0.00 | 0.00 | 82 | 1019.0 |
| 20260502091513 | 0 | 33 | 0.0 | 0.0 | 0.00 | 0.00 | 0.00 | 80 | 1018.9 |
| 20260502091013 | 0 | 33 | 0.0 | 0.0 | 0.00 | 0.00 | 0.00 | 80 | 1018.9 |
| 20260502090513 | 0 | 33 | 0.0 | 0.0 | 0.00 | 0.00 | 0.00 | 80 | 1018.8 |
| 20260502071512 | 2 | 33 | 3.2 | 4.8 | 0.00 | 0.00 | 0.00 | 73 | 1018.7 |
| 20260502071012 | 2 | 33 | 3.2 | 4.8 | 0.00 | 0.00 | 0.00 | 73 | 1018.8 |
| 20260502070513 | 2 | 33 | 3.2 | 4.8 | 0.00 | 0.00 | 0.00 | 73 | 1018.8 |
| 20260502065512 | 2 | 33 | 1.6 | 3.2 | 0.00 | 0.00 | 0.00 | 72 | 1018.8 |
| 20260502065013 | 2 | 33 | 3.2 | 3.2 | 0.00 | 0.00 | 0.00 | 72 | 1018.8 |
| 20260502064512 | 2 | 33 | 3.2 | 3.2 | 0.00 | 0.00 | 0.00 | 72 | 1018.8 |
| 20260502064012 | 2 | 33 | 1.6 | 3.2 | 0.00 | 0.00 | 0.00 | 72 | 1018.9 |
| 20260502063012 | 2 | 33 | 1.6 | 4.8 | 0.00 | 0.00 | 0.00 | 72 | 1018.8 |
| 20260502062512 | 2 | 33 | 1.6 | 4.8 | 0.00 | 0.00 | 0.00 | 72 | 1018.8 |
| 20260502062013 | 3 | 33 | 3.2 | 4.8 | 0.00 | 0.00 | 0.00 | 72 | 1019.0 |
| 20260502061513 | 3 | 33 | 3.2 | 4.8 | 0.00 | 0.00 | 0.00 | 72 | 1019.0 |
| 20260502061013 | 3 | 33 | 3.2 | 4.8 | 0.00 | 0.00 | 0.00 | 72 | 1018.9 |
| 20260502060512 | 3 | 33 | 3.2 | 4.8 | 0.00 | 0.00 | 0.00 | 71 | 1019.0 |
| 20260502060012 | 3 | 33 | 1.6 | 4.8 | 0.00 | 0.00 | 0.00 | 72 | 1018.9 |
| 20260502055512 | 3 | 33 | 3.2 | 4.8 | 0.00 | 0.00 | 0.00 | 71 | 1018.9 |
| 20260502055012 | 3 | 33 | 1.6 | 4.8 | 0.00 | 0.00 | 0.00 | 71 | 1018.9 |
| 20260502054012 | 3 | 34 | 4.8 | 4.8 | 0.00 | 0.00 | 0.00 | 71 | 1018.9 |
| 20260502053512 | 3 | 34 | 3.2 | 6.4 | 0.00 | 0.00 | 0.00 | 71 | 1018.8 |
| 20260502053012 | 3 | 34 | 3.2 | 6.4 | 0.00 | 0.00 | 0.00 | 71 | 1018.8 |
| 20260502052512 | 3 | 34 | 4.8 | 4.8 | 0.00 | 0.00 | 0.00 | 71 | 1018.8 |
| 20260502052013 | 3 | 34 | 1.6 | 6.4 | 0.00 | 0.00 | 0.00 | 71 | 1018.8 |
| 20260502051512 | 4 | 34 | 1.6 | 6.4 | 0.00 | 0.00 | 0.00 | 71 | 1018.9 |
| 20260502051012 | 4 | 34 | 3.2 | 6.4 | 0.00 | 0.00 | 0.00 | 70 | 1018.8 |
| 20260502050512 | 4 | 23 | 1.6 | 6.4 | 0.00 | 0.00 | 0.00 | 70 | 1018.8 |
| 20260502050012 | 4 | 12 | 4.8 | 6.4 | 0.00 | 0.00 | 0.00 | 70 | 1018.8 |
| 20260502045512 | 4 | 11 | 1.6 | 4.8 | 0.00 | 0.00 | 0.00 | 69 | 1018.8 |
| 20260502045012 | 4 | 360 | 3.2 | 4.8 | 0.00 | 0.00 | 0.00 | 69 | 1018.7 |
| 20260502044512 | 5 | 360 | 1.6 | 4.8 | 0.00 | 0.00 | 0.00 | 69 | 1018.6 |
| 20260502044012 | 5 | 350 | 1.6 | 6.4 | 0.00 | 0.00 | 0.00 | 68 | 1018.6 |
| 20260502043512 | 5 | 350 | 3.2 | 6.4 | 0.00 | 0.00 | 0.00 | 68 | 1018.6 |
| 20260502043012 | 5 | 348 | 1.6 | 6.4 | 0.00 | 0.00 | 0.00 | 68 | 1018.7 |
| 20260502042512 | 5 | 15 | 3.2 | 6.4 | 0.00 | 0.00 | 0.00 | 68 | 1018.6 |
| 20260502042013 | 5 | 15 | 4.8 | 6.4 | 0.00 | 0.00 | 0.00 | 67 | 1018.6 |
| 20260502041512 | 5 | 355 | 4.8 | 6.4 | 0.00 | 0.00 | 0.00 | 67 | 1018.5 |
| 20260502040512 | 5 | 355 | 4.8 | 6.4 | 0.00 | 0.00 | 0.00 | 66 | 1018.5 |
| 20260502040042 | 5 | 5 | 3.2 | 6.4 | 0.00 | 0.00 | 0.00 | 66 | 1018.4 |
| 20260502035512 | 6 | 355 | 4.8 | 6.4 | 0.00 | 0.00 | 0.00 | 65 | 1018.5 |
| 20260502035012 | 6 | 338 | 4.8 | 6.4 | 0.00 | 0.00 | 0.00 | 65 | 1018.4 |
| 20260502034512 | 6 | 331 | 3.2 | 6.4 | 0.00 | 0.00 | 0.00 | 64 | 1018.4 |
| 20260502033512 | 6 | 335 | 3.2 | 8.0 | 0.00 | 0.00 | 0.00 | 63 | 1018.3 |
| 20260502032012 | 6 | 325 | 4.8 | 6.4 | 0.00 | 0.00 | 0.00 | 63 | 1018.2 |
| 20260502031512 | 7 | 346 | 3.2 | 6.4 | 0.00 | 0.00 | 0.00 | 63 | 1018.2 |
| 20260502031012 | 7 | 337 | 3.2 | 6.4 | 0.00 | 0.00 | 0.00 | 63 | 1018.2 |
| 20260502030512 | 7 | 335 | 1.6 | 6.4 | 0.00 | 0.00 | 0.00 | 62 | 1018.2 |
| 20260502025512 | 7 | 346 | 4.8 | 8.0 | 0.00 | 0.00 | 0.00 | 62 | 1018.0 |
| 20260502024512 | 7 | 355 | 4.8 | 8.0 | 0.00 | 0.00 | 0.00 | 60 | 1017.9 |
| 20260502024012 | 8 | 355 | 4.8 | 8.0 | 0.00 | 0.00 | 0.00 | 58 | 1017.8 |
| 20260502023012 | 8 | 342 | 1.6 | 9.7 | 0.00 | 0.00 | 0.00 | 53 | 1017.6 |
| 20260502022512 | 8 | 338 | 1.6 | 8.0 | 0.00 | 0.00 | 0.00 | 51 | 1017.7 |
| 20260502022012 | 8 | 18 | 6.4 | 8.0 | 0.00 | 0.00 | 0.00 | 51 | 1017.7 |
| 20260502021512 | 9 | 350 | 4.8 | 9.7 | 0.00 | 0.00 | 0.00 | 50 | 1017.6 |
| 20260502021012 | 9 | 338 | 3.2 | 9.7 | 0.00 | 0.00 | 0.00 | 49 | 1017.5 |
| 20260502020512 | 9 | 5 | 6.4 | 8.0 | 0.00 | 0.00 | 0.00 | 48 | 1017.5 |
| 20260502020042 | 10 | 5 | 3.2 | 8.0 | 0.00 | 0.00 | 0.00 | 48 | 1017.5 |
| 20260502015512 | 10 | 15 | 3.2 | 12.9 | 0.00 | 0.00 | 0.00 | 46 | 1017.3 |
| 20260502015012 | 10 | 26 | 4.8 | 12.9 | 0.00 | 0.00 | 0.00 | 46 | 1017.2 |
| 20260502014512 | 10 | 5 | 8.0 | 11.3 | 0.00 | 0.00 | 0.00 | 45 | 1017.1 |
| 20260502014012 | 10 | 9 | 6.4 | 14.5 | 0.00 | 0.00 | 0.00 | 44 | 1017.0 |
| 20260502013512 | 10 | 11 | 8.0 | 14.5 | 0.00 | 0.00 | 0.00 | 44 | 1017.0 |
| 20260502013012 | 10 | 360 | 8.0 | 11.3 | 0.00 | 0.00 | 0.00 | 44 | 1016.9 |
| 20260502012012 | 11 | 5 | 6.4 | 14.5 | 0.00 | 0.00 | 0.00 | 43 | 1016.9 |
| 20260502011512 | 11 | 15 | 4.8 | 12.9 | 0.00 | 0.00 | 0.00 | 42 | 1016.8 |
| 20260502010512 | 11 | 313 | 9.7 | 14.5 | 0.00 | 0.00 | 0.00 | 42 | 1016.7 |
| 20260502010012 | 11 | 355 | 3.2 | 14.5 | 0.00 | 0.00 | 0.00 | 41 | 1016.7 |
| 20260502005012 | 12 | 13 | 6.4 | 12.9 | 0.00 | 0.00 | 0.00 | 40 | 1016.5 |
| 20260502004512 | 12 | 316 | 4.8 | 12.9 | 0.00 | 0.00 | 0.00 | 40 | 1016.5 |
| 20260502004012 | 12 | 342 | 4.8 | 12.9 | 0.00 | 0.00 | 0.00 | 39 | 1016.4 |
| 20260502003512 | 12 | 321 | 4.8 | 12.9 | 0.00 | 0.00 | 0.00 | 39 | 1016.5 |
| 20260502003012 | 12 | 338 | 3.2 | 17.7 | 0.00 | 0.00 | 0.00 | 41 | 1016.4 |
| 20260502001512 | 12 | 316 | 1.6 | 17.7 | 0.00 | 0.00 | 0.00 | 41 | 1016.3 |
| 20260502001012 | 12 | 5 | 8.0 | 20.9 | 0.00 | 0.00 | 0.00 | 39 | 1016.2 |
| 20260502000512 | 12 | 334 | 9.7 | 20.9 | 0.00 | 0.00 | 0.00 | 40 | 1016.2 |
| 20260502000012 | 12 | 321 | 11.3 | 16.1 | 0.00 | 0.00 | 0.00 | 40 | 1016.2 |
| 20260501235512 | 12 | 336 | 9.7 | 16.1 | 0.00 | 0.00 | 0.00 | 39 | 1016.1 |
| 20260501235012 | 13 | 321 | 3.2 | 19.3 | 0.00 | 0.00 | 0.00 | 38 | 1016.1 |
| 20260501234512 | 13 | 311 | 11.3 | 19.3 | 0.00 | 0.00 | 0.00 | 39 | 1016.1 |
| 20260501234012 | 13 | 340 | 6.4 | 19.3 | 0.00 | 0.00 | 0.00 | 38 | 1016.0 |
| 20260501233512 | 13 | 351 | 17.7 | 19.3 | 0.00 | 0.00 | 0.00 | 38 | 1016.0 |
| 20260501233012 | 13 | 316 | 12.9 | 22.5 | 0.00 | 0.00 | 0.00 | 38 | 1016.1 |
| 20260501232512 | 13 | 338 | 16.1 | 22.5 | 0.00 | 0.00 | 0.00 | 40 | 1016.0 |
| 20260501230512 | 13 | 306 | 6.4 | 19.3 | 0.00 | 0.00 | 0.00 | 41 | 1016.1 |
| 20260501230012 | 13 | 360 | 6.4 | 19.3 | 0.00 | 0.00 | 0.00 | 40 | 1016.0 |
| 20260501225512 | 13 | 320 | 12.9 | 19.3 | 0.00 | 0.00 | 0.00 | 39 | 1016.0 |
| 20260501225012 | 13 | 299 | 19.3 | 19.3 | 0.00 | 0.00 | 0.00 | 39 | 1016.1 |